[[[{"header":{"parameterUnit":"kt","parameterCategory":2,"dx":1,"dy":1,"la1":30.253999710083008,"la2":30.299108505249023,"lo1":-89.0895004272461,"lo2":-89.04439544677734,"nx":28,"ny":28,"refTime":"2022-10-10T21:00:00:Z","depth":"0","parameterNumber":2,"parameterNumberName":"U-component_of_CURRENTS"},"data":[0.4877,0.4839,0.4798,0.4652,0.4619,0.4484,0.4444,0.4445,0.4607,0.4833,0.5057,0.5414,0.5844,0.6114,0.5965,0.5829,0.5344,0.5132,0.5099,0.5679,0.573,0.5778,0.556,0.5292,0.5291,0.3974,0.3965,0.3958,0.4886,0.487,0.4905,0.4866,0.4817,0.4885,0.4923,0.4882,0.4963,0.5333,0.5597,0.6,0.6195,0.6423,0.6561,0.6361,0.6009,0.6188,0.5672,0.5557,0.639,0.6185,0.6045,0.6046,0.6046,0.6046,0.6046,0.6046,0.4899,0.4914,0.4946,0.4961,0.5005,0.4994,0.4983,0.5142,0.5299,0.5577,0.5947,0.6213,0.6616,0.7055,0.708,0.6985,0.6952,0.68,0.6784,0.6518,0.6152,0.696,0.7135,0.7138,0.7141,0.7143,0.7145,0,0.4893,0.4913,0.4949,0.501,0.5062,0.5107,0.524,0.5327,0.5606,0.5814,0.6125,0.6358,0.6853,0.7018,0.7358,0.7445,0.7128,0.7457,0.727,0.6612,0.6182,0.6004,0.6879,0.7087,0.709,0.7092,0.7094,0.7095,0.4879,0.4905,0.5004,0.5028,0.509,0.5196,0.527,0.5494,0.5626,0.6038,0.6152,0.6559,0.6797,0.7263,0.7414,0.7657,0.7387,0.7522,0.7273,0.7004,0.6964,0.6648,0.6463,0.7127,0.7123,0.7119,0.7117,0,0.4889,0.4938,0.5007,0.5136,0.5171,0.5245,0.5436,0.5541,0.5774,0.6012,0.611,0.6475,0.6792,0.7021,0.7328,0.7342,0.7331,0.7566,0.7259,0.7256,0.7006,0.6937,0.6805,0.6604,0.7688,0.7689,0.7689,0,0.495,0.4988,0.5093,0.5124,0.5205,0.5331,0.5456,0.561,0.5841,0.6002,0.622,0.6391,0.6628,0.6865,0.6951,0.7164,0.727,0.7148,0.7193,0.6943,0.6914,0.6756,0.6673,0.727,0.7267,0.7264,0.7262,0,0.4979,0.5086,0.5131,0.5175,0.5321,0.5385,0.5478,0.5682,0.5793,0.6054,0.6183,0.6392,0.6524,0.6683,0.6821,0.6737,0.7128,0.7044,0.7087,0.7085,0.6927,0.6899,0.6908,0.7258,0.7257,0.7256,0.7255,0,0.5056,0.5113,0.5179,0.5299,0.533,0.5387,0.5562,0.565,0.5869,0.5963,0.6124,0.6208,0.6372,0.6289,0.6571,0.6463,0.6564,0.6629,0.6646,0.6575,0.6535,0.6596,0.6765,0.6545,0.6811,0.6806,0.6802,0,0.5066,0.5139,0.5208,0.528,0.533,0.5438,0.5517,0.5635,0.5741,0.5875,0.5958,0.6067,0.601,0.6067,0.6154,0.6269,0.6389,0.6197,0.6528,0.6538,0.646,0.6651,0.6397,0.67,0.6744,0.675,0.6755,0,0.5069,0.5183,0.5188,0.5228,0.5344,0.5388,0.5485,0.5598,0.5678,0.5743,0.5866,0.5914,0.5959,0.5987,0.6,0.6085,0.6295,0.6084,0.609,0.6228,0.665,0.658,0.6613,0.6324,0.633,0.6335,0.6709,0,0.5127,0.5169,0.5193,0.5267,0.5325,0.5377,0.5456,0.5514,0.5549,0.5608,0.5721,0.5748,0.5837,0.584,0.5827,0.5973,0.6003,0.5981,0.5947,0.6052,0.62,0.6237,0.5788,0.5787,0.5785,0.5785,0,0,0.5103,0.5149,0.5201,0.5247,0.5296,0.535,0.5396,0.5439,0.5506,0.5559,0.5537,0.5661,0.5661,0.577,0.5792,0.5793,0.5889,0.5767,0.598,0.6002,0.6022,0.6169,0.6205,0.5783,0.5782,0.5782,0.5781,0,0.5119,0.516,0.5183,0.5237,0.5311,0.5349,0.5365,0.543,0.546,0.5513,0.5535,0.5592,0.5623,0.5671,0.5694,0.5772,0.5813,0.5778,0.582,0.5966,0.5989,0.6009,0.6158,0.6191,0.5779,0.5779,0.5779,0,0.5121,0.5163,0.5179,0.5253,0.5294,0.5342,0.5354,0.5408,0.5447,0.5444,0.5488,0.5519,0.5547,0.5604,0.5624,0.5599,0.576,0.5651,0.5658,0.5656,0.5804,0.5829,0.5852,0.5562,0.5561,0.556,0,0,0.5129,0.5158,0.5229,0.526,0.5289,0.5337,0.5365,0.5396,0.5436,0.5451,0.5463,0.5487,0.5528,0.554,0.5566,0.5598,0.5661,0.5625,0.5635,0.5644,0.5646,0.5795,0.5819,0.5558,0.5557,0.5557,0,0,0.5133,0.5201,0.5219,0.5258,0.5314,0.5371,0.5394,0.5412,0.5445,0.5447,0.545,0.5455,0.5506,0.5497,0.5465,0.5551,0.551,0.5516,0.5553,0.5565,0.5575,0.5574,0.5435,0,0,0,0,0,0.5175,0.5193,0.5208,0.5223,0.5298,0.5362,0.5372,0.541,0.5405,0.5426,0.545,0.5425,0.5499,0.547,0.5469,0.5503,0.5523,0.5529,0.5535,0.5591,0.5604,0.5615,0,0,0,0,0,0,0.5181,0.5197,0.5208,0.5265,0.5283,0.536,0.5362,0.5372,0.5404,0.5408,0.5424,0.5425,0.5429,0.5468,0.5468,0.5501,0.5435,0.5526,0.5531,0.5536,0.5595,0.5606,0.5616,0,0,0,0,0,0.5186,0.5199,0.5311,0.5265,0.528,0.5339,0.5361,0.537,0.5391,0.5411,0.5415,0.5422,0.5429,0.543,0.5468,0.5502,0.5435,0.5435,0.5529,0.5533,0.5537,0.5601,0,0,0,0,0,0,0.519,0.5197,0.5314,0.5321,0.5266,0.5336,0.5347,0.5368,0.5392,0.5398,0.5408,0.541,0.5429,0.5429,0.543,0.5505,0.5435,0.5435,0.5435,0.5532,0.5535,0.5538,0,0,0,0,0,0,0.5191,0.5202,0.5317,0.5317,0.5323,0.5333,0.5343,0.5343,0.5389,0.5385,0.5389,0.5408,0.5418,0.5429,0.5429,0.5428,0.5435,0.5435,0.5435,0.5435,0.5535,0.5537,0,0,0,0,0,0,0.5196,0.5205,0.5315,0.532,0.5325,0.5395,0.5331,0.5396,0.5423,0.5381,0.5424,0.5424,0.5416,0.5418,0.5429,0.5428,0.5428,0.5435,0.5435,0.5435,0.5435,0,0,0,0,0,0,0,0.52,0.5128,0.5284,0.5322,0.5327,0.5381,0.5382,0.5383,0.5423,0.5423,0.5424,0.5424,0.5434,0.5434,0.5434,0.5427,0,0,0.5435,0.5435,0,0,0,0,0,0,0,0,0.5125,0.5127,0.5284,0.5286,0.5288,0.5382,0.5382,0.5383,0.5423,0.5423,0.5423,0.5424,0.5434,0.5434,0.5434,0,0,0,0,0,0,0,0,0,0,0,0,0,0,0,0.5284,0.5286,0,0.5382,0.5382,0.5383,0.5423,0.5423,0.5423,0.5424,0.5434,0.5434,0.5434,0,0,0,0,0,0,0,0,0,0,0,0,0,0,0,0,0,0,0,0,0,0,0,0,0,0,0,0,0,0,0,0,0,0,0,0,0,0,0,0,0,0,0,0,0,0,0,0,0,0,0,0,0,0,0,0,0,0,0,0,0,0,0,0,0,0,0,0,0]}],[{"header":{"parameterUnit":"kt","parameterCategory":2,"dx":1,"dy":1,"la1":30.253999710083008,"la2":30.299108505249023,"lo1":-89.0895004272461,"lo2":-89.04439544677734,"nx":28,"ny":28,"refTime":"2022-10-10T21:00:00:Z","depth":"0","parameterNumber":3,"parameterNumberName":"V-component_of_CURRENTS"},"data":[0.2337,0.2551,0.2593,0.2966,0.3137,0.3423,0.3596,0.3881,0.4138,0.4415,0.4433,0.4414,0.3467,0.0789,-0.1059,-0.1478,-0.1951,-0.2039,-0.2248,-0.1801,-0.1742,-0.1685,-0.1792,-0.2267,-0.2269,-0.2992,-0.3,-0.3006,0.217,0.2273,0.2491,0.2729,0.2961,0.3034,0.3385,0.3554,0.3897,0.4226,0.4405,0.3968,0.2922,0.1814,0.0201,-0.0568,-0.085,-0.0991,-0.1215,-0.1276,-0.0473,-0.0534,-0.0749,-0.0749,-0.0748,-0.0748,-0.0747,-0.0747,0.1893,0.2021,0.2178,0.2392,0.2611,0.2891,0.3059,0.3324,0.3626,0.3931,0.3949,0.4013,0.3136,0.2033,0.1429,0.0211,0.0263,-0.0187,-0.0355,-0.0427,-0.0611,0.0313,0.0264,0.0265,0.0265,0.0266,0.0266,0,0.1685,0.1726,0.1837,0.2089,0.2271,0.2474,0.2698,0.2883,0.3022,0.3224,0.348,0.3494,0.2991,0.2411,0.1615,0.1172,0.0321,0.0542,0.015,-0.0303,-0.0435,-0.0606,0.0316,0.0338,0.0339,0.034,0.0341,0.0341,0.1445,0.1534,0.1679,0.1806,0.187,0.2044,0.2196,0.2253,0.2447,0.2651,0.2826,0.2749,0.2753,0.2213,0.1553,0.0994,0.0626,0.0582,0.0387,0.0015,-0.022,-0.0336,-0.0445,0.0351,0.035,0.0349,0.0348,0,0.1337,0.1346,0.1496,0.1582,0.1624,0.1757,0.1928,0.2076,0.2118,0.2365,0.2406,0.2329,0.2176,0.1775,0.1431,0.1073,0.0569,0.065,0.0647,0.059,0.0012,-0.0162,-0.0394,-0.0534,0.0448,0.0448,0.0447,0,0.1192,0.1274,0.1322,0.1387,0.1548,0.1515,0.1695,0.1704,0.1795,0.1977,0.1787,0.1915,0.1529,0.1411,0.1078,0.0811,0.0868,0.049,0.0436,0.0399,0.039,0.0014,-0.0174,0.05,0.05,0.05,0.05,0,0.1076,0.114,0.1242,0.1257,0.1308,0.1363,0.1394,0.1409,0.1497,0.1506,0.1594,0.1436,0.1448,0.1205,0.0931,0.0852,0.0752,0.0608,0.0427,0.0423,0.0343,0.0329,0.0064,0.0499,0.0499,0.0499,0.0499,0,0.0957,0.1003,0.1109,0.1168,0.1181,0.1223,0.1282,0.1303,0.1298,0.1279,0.1234,0.1141,0.1075,0.091,0.0733,0.0736,0.0582,0.046,0.0456,0.0371,0.0256,0.0247,0.0329,-0.0052,0.0374,0.0373,0.0372,0,0.0865,0.0948,0.0911,0.0995,0.1037,0.097,0.1006,0.0985,0.0951,0.0981,0.0845,0.0845,0.0655,0.0657,0.058,0.0453,0.0419,0.0401,0.0284,0.0282,0.0258,0.0351,0.0311,0.0319,0.0362,0.0363,0.0364,0,0.0776,0.0781,0.0785,0.0822,0.0777,0.0783,0.0794,0.0785,0.0834,0.0724,0.0777,0.0622,0.0562,0.0509,0.0404,0.0365,0.0396,0.0277,0.0272,0.0303,0.0379,0.034,0.0343,0.0338,0.034,0.0341,0.0356,0,0.0695,0.0709,0.0723,0.0717,0.0701,0.071,0.065,0.0639,0.0585,0.0541,0.0505,0.0377,0.032,0.0264,0.0184,0.0203,0.0175,0.0103,0.0062,0.0133,0.0126,0.0133,0.0006,0.0003,0.0001,-0.0001,0,0,0.0616,0.063,0.0558,0.0577,0.057,0.0476,0.0508,0.0467,0.039,0.0386,0.0326,0.0206,0.0108,0.009,0.0094,0.0033,0.0021,0.0046,0.0087,0.0097,0.0106,0.0105,0.0114,-0.0005,-0.0006,-0.0007,-0.0008,0,0.0576,0.0535,0.0556,0.0529,0.0483,0.0439,0.0441,0.0369,0.034,0.0307,0.0218,0.0161,0.0062,0.0008,-0.0037,0.0002,-0.006,-0.0028,0.0089,0.0066,0.008,0.0091,0.0093,0.0103,-0.0014,-0.0014,-0.0013,0,0.051,0.0477,0.0471,0.0425,0.0384,0.0385,0.0301,0.0278,0.0281,0.0151,0.0136,0.0051,-0.0048,-0.0078,-0.01,-0.0126,-0.012,-0.0148,-0.0138,-0.0112,-0.0139,-0.0123,-0.0109,-0.0283,-0.0283,-0.0283,0,0,0.0484,0.0476,0.0408,0.041,0.0393,0.0317,0.0293,0.0252,0.0189,0.0163,0.0091,0.0015,-0.0048,-0.0078,-0.0148,-0.0172,-0.0202,-0.0174,-0.0161,-0.015,-0.0119,-0.0142,-0.0128,-0.0284,-0.0284,-0.0284,0,0,0.0464,0.0399,0.0372,0.0369,0.0325,0.0241,0.0236,0.019,0.0133,0.0126,0.0025,0.0002,-0.0038,-0.0102,-0.01,-0.0155,-0.0216,-0.0218,-0.009,-0.0076,-0.0064,-0.0006,-0.0183,0,0,0,0,0,0.0393,0.0409,0.0386,0.0376,0.0298,0.0257,0.0243,0.0177,0.0148,0.0148,0.0077,0.0017,-0.012,-0.012,-0.0142,-0.012,-0.0294,-0.0292,-0.029,-0.0135,-0.0119,-0.0105,0,0,0,0,0,0,0.0389,0.0379,0.0385,0.0307,0.0288,0.0255,0.0195,0.0177,0.0147,0.0139,0.0033,0.0014,-0.0056,-0.0115,-0.0133,-0.011,-0.0177,-0.0293,-0.0292,-0.029,-0.0129,-0.0116,-0.0105,0,0,0,0,0,0.0385,0.0377,0.0277,0.0305,0.0288,0.0204,0.0195,0.0179,0.0153,0.0048,0.0028,0.0108,-0.0054,-0.0074,-0.0127,-0.0099,-0.0165,-0.0172,-0.0292,-0.0291,-0.029,-0.0123,0,0,0,0,0,0,0.0382,0.0351,0.0271,0.0262,0.0303,0.0204,0.019,0.0182,0.0061,0.0043,0.0117,0.0112,-0.0052,-0.0069,-0.0084,-0.009,-0.0156,-0.0162,-0.0166,-0.0291,-0.029,-0.0289,0,0,0,0,0,0,0.0355,0.0345,0.0266,0.0268,0.0258,0.0205,0.0192,0.0129,0.006,0.0136,0.0129,0.0116,-0.0035,-0.0065,-0.0077,-0.0174,-0.0148,-0.0155,-0.0159,-0.0162,-0.029,-0.029,0,0,0,0,0,0,0.0349,0.034,0.0269,0.0262,0.0254,0.0149,0.0145,0.0064,0.0079,0.0142,0.0077,0.0076,-0.003,-0.0044,-0.0072,-0.0162,-0.0171,-0.0149,-0.0153,-0.0156,-0.0158,0,0,0,0,0,0,0,0.0344,0.0429,0.0326,0.0258,0.025,0.0182,0.0179,0.0176,0.0079,0.0078,0.0077,0.0076,-0.0113,-0.012,-0.0127,-0.0153,0,0,-0.0148,-0.0151,0,0,0,0,0,0,0,0,0.0431,0.043,0.0326,0.0324,0.0322,0.0181,0.0179,0.0177,0.0079,0.0078,0.0077,0.0077,-0.0115,-0.012,-0.0126,0,0,0,0,0,0,0,0,0,0,0,0,0,0,0,0.0325,0.0324,0,0.0181,0.0179,0.0177,0.0078,0.0078,0.0077,0.0077,-0.0116,-0.0121,-0.0125,0,0,0,0,0,0,0,0,0,0,0,0,0,0,0,0,0,0,0,0,0,0,0,0,0,0,0,0,0,0,0,0,0,0,0,0,0,0,0,0,0,0,0,0,0,0,0,0,0,0,0,0,0,0,0,0,0,0,0,0,0,0,0,0,0,0,0,0,0]}]],[[{"header":{"parameterUnit":"kt","parameterCategory":2,"dx":1,"dy":1,"la1":30.253999710083008,"la2":30.299108505249023,"lo1":-89.0895004272461,"lo2":-89.04439544677734,"nx":28,"ny":28,"refTime":"2022-10-10T21:00:00:Z","depth":"2","parameterNumber":2,"parameterNumberName":"U-component_of_CURRENTS"},"data":[0.4427,0.4448,0.4446,0.4475,0.4539,0.4499,0.4447,0.4278,0.4258,0.4062,0.4007,0.4191,0.4426,0.3815,0.3785,0.3554,0.3794,0.3418,0.4696,0.4629,0.4695,0.4892,0.4557,0,0,0,0,0,0.4413,0.4446,0.4521,0.4567,0.4612,0.4706,0.4744,0.4645,0.4722,0.4869,0.4935,0.4526,0.448,0.4557,0.4347,0.4368,0.4298,0.4172,0.4042,0.4126,0.42,0.3916,0.3383,0.3377,0.3372,0.3367,0,0,0.4356,0.4406,0.4494,0.4569,0.467,0.4702,0.4705,0.4895,0.5073,0.522,0.5465,0.5455,0.5543,0.5396,0.5282,0.5206,0.5571,0.5306,0.533,0.5364,0.5147,0.5018,0.4936,0.4941,0.4946,0.4951,0.4955,0,0.4338,0.4381,0.4436,0.4549,0.4653,0.4725,0.4916,0.5008,0.5292,0.5504,0.5743,0.5863,0.6082,0.5932,0.6017,0.5954,0.5952,0.5829,0.6538,0.5387,0.5262,0.5255,0.5269,0.5262,0.527,0.5275,0.528,0.5283,0.4306,0.4351,0.4479,0.4527,0.4619,0.4757,0.4869,0.5109,0.5265,0.5627,0.5744,0.6041,0.6176,0.6411,0.6384,0.643,0.6508,0.6013,0.5754,0.6254,0.6251,0.6231,0.6211,0.5367,0.5356,0.5348,0.534,0,0.4307,0.438,0.4473,0.4637,0.4686,0.4774,0.5003,0.513,0.5359,0.5576,0.5667,0.5983,0.6187,0.6318,0.6515,0.645,0.651,0.6492,0.6016,0.5966,0.6245,0.6221,0.643,0.6426,0.6423,0.642,0.6417,0,0.4367,0.4424,0.4563,0.4598,0.4715,0.4834,0.499,0.5135,0.5366,0.5514,0.5676,0.5842,0.6024,0.619,0.6212,0.6292,0.644,0.6197,0.6213,0.5815,0.5764,0.6202,0.6175,0.641,0.6407,0.6405,0.6404,0,0.4383,0.4509,0.4579,0.4621,0.4784,0.4867,0.4972,0.5153,0.5263,0.5484,0.561,0.5781,0.5929,0.6015,0.6108,0.6046,0.6328,0.6258,0.616,0.615,0.5789,0.5737,0.6401,0.64,0.64,0.6399,0.6398,0,0.4452,0.4518,0.4598,0.4737,0.4769,0.4848,0.5027,0.5109,0.5294,0.5385,0.5522,0.5597,0.5742,0.5677,0.59,0.5825,0.589,0.593,0.5943,0.5744,0.5694,0.5507,0.5581,0.6068,0.6065,0.6061,0.6058,0,0.4452,0.4535,0.4606,0.4695,0.4745,0.4847,0.4944,0.5041,0.5139,0.5262,0.5333,0.5457,0.5422,0.5502,0.556,0.5661,0.5742,0.5595,0.582,0.5826,0.5647,0.5794,0.5347,0.5548,0.6014,0.6019,0.6022,0,0.4435,0.4565,0.4575,0.462,0.4737,0.4773,0.4879,0.4978,0.5063,0.513,0.524,0.5324,0.537,0.5403,0.5435,0.5489,0.567,0.5487,0.549,0.5596,0.5939,0.5757,0.577,0.5689,0.5694,0.5697,0.5987,0,0.4483,0.4537,0.4571,0.4646,0.4696,0.4759,0.4822,0.4888,0.4939,0.4976,0.5109,0.5151,0.5241,0.5265,0.5256,0.5398,0.5422,0.539,0.5325,0.5434,0.5546,0.5575,0.5214,0.5212,0.521,0.5209,0,0,0.4447,0.4504,0.4546,0.459,0.4636,0.4694,0.4738,0.478,0.4846,0.4887,0.4885,0.5032,0.5049,0.5164,0.52,0.5209,0.5282,0.5184,0.5369,0.5387,0.5404,0.5517,0.5545,0.5206,0.5205,0.5205,0.5204,0,0.4453,0.4498,0.4527,0.4569,0.464,0.4672,0.4696,0.4746,0.4778,0.4844,0.4873,0.4944,0.5006,0.5047,0.5074,0.5179,0.5206,0.5211,0.5249,0.5352,0.5372,0.539,0.5505,0.5532,0.52,0.52,0.5201,0,0.4431,0.4474,0.4489,0.4552,0.4587,0.463,0.4627,0.4686,0.4727,0.4719,0.479,0.4836,0.4868,0.4949,0.4986,0.4944,0.5125,0.5038,0.5047,0.5033,0.5135,0.5158,0.5179,0.4915,0.4914,0.4913,0,0,0.4431,0.4467,0.451,0.4551,0.4576,0.4609,0.4635,0.4658,0.4697,0.4716,0.4741,0.4779,0.4838,0.4859,0.4904,0.4955,0.4986,0.5005,0.5018,0.5029,0.5022,0.5126,0.5148,0.491,0.491,0.491,0,0,0.4426,0.4476,0.4488,0.4531,0.4573,0.4604,0.4639,0.465,0.469,0.4705,0.4711,0.472,0.4814,0.4799,0.476,0.4889,0.4831,0.4839,0.4898,0.4915,0.4928,0.4911,0.473,0,0,0,0,0,0.4441,0.4469,0.4479,0.4492,0.4546,0.4596,0.4602,0.4632,0.4637,0.4662,0.4694,0.4681,0.4788,0.4753,0.4759,0.4824,0.4872,0.4879,0.4885,0.4976,0.4994,0.5008,0,0,0,0,0,0,0.4446,0.446,0.4479,0.451,0.4524,0.4593,0.4585,0.4592,0.4636,0.464,0.4674,0.4681,0.4681,0.4749,0.4755,0.4818,0.4728,0.4875,0.4881,0.4886,0.4982,0.4996,0.5009,0,0,0,0,0,0.4451,0.4462,0.4546,0.4509,0.4521,0.4568,0.4585,0.4591,0.4624,0.4645,0.4653,0.4653,0.468,0.4687,0.4752,0.4816,0.4724,0.4726,0.4879,0.4883,0.4887,0.4989,0,0,0,0,0,0,0.4454,0.445,0.4548,0.4553,0.4517,0.4565,0.4574,0.459,0.4627,0.4636,0.4622,0.4624,0.4679,0.4685,0.4691,0.4818,0.4721,0.4723,0.4725,0.4882,0.4886,0.4889,0,0,0,0,0,0,0.4446,0.4454,0.455,0.4558,0.4564,0.4563,0.4571,0.4591,0.4627,0.4599,0.4603,0.4622,0.4683,0.4683,0.4688,0.4715,0.4719,0.4721,0.4722,0.4723,0.4885,0.4888,0,0,0,0,0,0,0.4449,0.4456,0.4556,0.4561,0.4565,0.4612,0.4581,0.4638,0.4627,0.4596,0.4629,0.4631,0.4682,0.4686,0.4685,0.4711,0.4714,0.4719,0.472,0.4721,0.4722,0,0,0,0,0,0,0,0.4452,0.4401,0.4531,0.4563,0.4567,0.4598,0.4598,0.4598,0.4627,0.4628,0.4629,0.463,0.4707,0.4709,0.4712,0.4707,0,0,0.4719,0.4719,0,0,0,0,0,0,0,0,0.4399,0.44,0.4532,0.4533,0.4535,0.4598,0.4598,0.4598,0.4628,0.4628,0.4629,0.463,0.4708,0.4709,0.4711,0,0,0,0,0,0,0,0,0,0,0,0,0,0,0,0.4532,0.4533,0,0.4598,0.4598,0.4598,0.4628,0.4628,0.4629,0.4629,0.4708,0.471,0.4711,0,0,0,0,0,0,0,0,0,0,0,0,0,0,0,0,0,0,0,0,0,0,0,0,0,0,0,0,0,0,0,0,0,0,0,0,0,0,0,0,0,0,0,0,0,0,0,0,0,0,0,0,0,0,0,0,0,0,0,0,0,0,0,0,0,0,0,0,0]}],[{"header":{"parameterUnit":"kt","parameterCategory":2,"dx":1,"dy":1,"la1":30.253999710083008,"la2":30.299108505249023,"lo1":-89.0895004272461,"lo2":-89.04439544677734,"nx":28,"ny":28,"refTime":"2022-10-10T21:00:00:Z","depth":"2","parameterNumber":3,"parameterNumberName":"V-component_of_CURRENTS"},"data":[0.085,0.0984,0.11,0.1383,0.1594,0.1858,0.1988,0.2181,0.2288,0.2327,0.2302,0.2117,0.1466,0.0872,0.0185,-0.0264,-0.0352,-0.0364,-0.0373,-0.0111,-0.0097,-0.0561,-0.0512,0,0,0,0,0,0.0841,0.0986,0.118,0.1379,0.1556,0.1711,0.1925,0.2038,0.2248,0.237,0.2378,0.1856,0.13,0.0708,-0.0132,-0.0665,-0.0663,-0.0823,-0.0677,-0.0668,-0.0661,-0.0638,-0.0742,-0.0743,-0.0744,-0.0745,0,0,0.0829,0.0934,0.1108,0.1277,0.1456,0.1636,0.1769,0.1957,0.2148,0.2282,0.2216,0.2087,0.1572,0.0609,0.0046,-0.0525,-0.0542,-0.0732,-0.0722,-0.0714,-0.0699,-0.0668,-0.0816,-0.0817,-0.0818,-0.0819,-0.082,0,0.0804,0.0889,0.0976,0.1181,0.1321,0.1461,0.163,0.1746,0.1868,0.1982,0.2055,0.1951,0.1418,0.0885,0.0172,-0.0189,-0.045,-0.0564,-0.0533,-0.0465,-0.0423,-0.0477,-0.0469,-0.0531,-0.053,-0.053,-0.053,-0.0529,0.0741,0.0825,0.097,0.1053,0.1107,0.1243,0.1352,0.143,0.1548,0.165,0.1726,0.1548,0.1409,0.0805,0.0276,-0.0266,-0.0329,-0.0526,-0.0599,-0.0556,-0.0615,-0.0604,-0.0595,-0.0523,-0.0523,-0.0524,-0.0525,0,0.0724,0.0758,0.0864,0.0952,0.0993,0.1083,0.1222,0.1314,0.1347,0.1474,0.1483,0.1356,0.1102,0.0729,0.0349,0.0065,-0.0278,-0.0411,-0.0277,-0.0333,-0.0578,-0.0573,-0.0679,-0.0683,-0.0687,-0.069,-0.0692,0,0.066,0.0718,0.0782,0.0826,0.0945,0.0934,0.106,0.106,0.1112,0.1212,0.1037,0.1072,0.0739,0.0556,0.0251,-0.0079,-0.0026,-0.0374,-0.0445,-0.0358,-0.036,-0.036,-0.0363,-0.0326,-0.0325,-0.0324,-0.0323,0,0.0583,0.0642,0.072,0.0731,0.0771,0.0818,0.0842,0.0839,0.089,0.0858,0.0895,0.0735,0.0704,0.0457,0.0171,0.0142,-0.0084,-0.0167,-0.0404,-0.0412,-0.0405,-0.0413,-0.0323,-0.0322,-0.0322,-0.0322,-0.0322,0,0.0503,0.0538,0.0621,0.0668,0.0679,0.0715,0.0749,0.0755,0.0723,0.0701,0.0643,0.0544,0.0444,0.0326,0.01,0.0135,-0.0031,-0.0166,-0.0174,-0.0307,-0.0407,-0.0401,-0.0377,-0.0299,-0.0299,-0.0298,-0.0298,0,0.0432,0.0498,0.0475,0.0538,0.057,0.0517,0.054,0.0514,0.0477,0.0475,0.035,0.0324,0.0196,0.0178,0.009,-0.0067,-0.0131,-0.009,-0.03,-0.0305,-0.0381,-0.0363,-0.028,-0.0365,-0.0289,-0.029,-0.0291,0,0.0364,0.0375,0.0381,0.0406,0.0371,0.0373,0.0378,0.0361,0.0388,0.0297,0.0312,0.0182,0.0128,0.0075,-0.0022,-0.0089,-0.0124,-0.017,-0.0177,-0.0196,-0.0247,-0.0341,-0.0355,-0.0188,-0.0188,-0.0188,-0.0284,0,0.0301,0.0316,0.0331,0.0324,0.0309,0.0319,0.0265,0.0254,0.0209,0.0165,0.0119,0.0,-0.0064,-0.011,-0.0181,-0.0201,-0.0235,-0.0296,-0.0338,-0.0295,-0.0345,-0.035,-0.0331,-0.0334,-0.0336,-0.0337,0,0,0.0237,0.0252,0.0198,0.0212,0.0205,0.0129,0.0153,0.0116,0.0043,0.0032,-0.0012,-0.0134,-0.0223,-0.0264,-0.0259,-0.0312,-0.0352,-0.0299,-0.0316,-0.0313,-0.0311,-0.0355,-0.0358,-0.0341,-0.0341,-0.0342,-0.0343,0,0.0205,0.0177,0.0197,0.0172,0.0134,0.0096,0.0098,0.0038,0.001,-0.0026,-0.0109,-0.0168,-0.0258,-0.0318,-0.0363,-0.0337,-0.0409,-0.0355,-0.0264,-0.0331,-0.0326,-0.0321,-0.0363,-0.0364,-0.0348,-0.0347,-0.0347,0,0.0149,0.0122,0.012,0.0082,0.0048,0.0047,-0.0024,-0.004,-0.0044,-0.0161,-0.0182,-0.0258,-0.0353,-0.0387,-0.0409,-0.0432,-0.0462,-0.0455,-0.0447,-0.0425,-0.0498,-0.0491,-0.0484,-0.0563,-0.0563,-0.0563,0,0,0.0125,0.0123,0.0065,0.0069,0.0057,-0.001,-0.0031,-0.0067,-0.0125,-0.015,-0.0217,-0.0289,-0.0351,-0.0383,-0.0445,-0.0475,-0.0525,-0.0476,-0.0466,-0.0457,-0.0431,-0.05,-0.0493,-0.0564,-0.0564,-0.0564,0,0,0.0108,0.0057,0.003,0.0034,-0.0007,-0.0078,-0.008,-0.0122,-0.0177,-0.0182,-0.0277,-0.03,-0.0341,-0.0399,-0.0397,-0.045,-0.0499,-0.0501,-0.0397,-0.0385,-0.0376,-0.0326,-0.0464,0,0,0,0,0,0.0046,0.0066,0.0042,0.0034,-0.0029,-0.0064,-0.0076,-0.0133,-0.0158,-0.0158,-0.0229,-0.0278,-0.0415,-0.0415,-0.0435,-0.0416,-0.0572,-0.057,-0.0569,-0.0444,-0.0431,-0.042,0,0,0,0,0,0,0.0042,0.0035,0.0041,-0.0024,-0.004,-0.0065,-0.0117,-0.0133,-0.0159,-0.0166,-0.0263,-0.0281,-0.0345,-0.041,-0.0427,-0.0407,-0.0459,-0.0571,-0.057,-0.0569,-0.044,-0.0429,-0.042,0,0,0,0,0,0.0039,0.0033,-0.0046,-0.0026,-0.004,-0.0112,-0.0117,-0.0131,-0.0154,-0.025,-0.0268,-0.0193,-0.0343,-0.0362,-0.042,-0.0397,-0.0448,-0.0454,-0.0571,-0.057,-0.0569,-0.0434,0,0,0,0,0,0,0.0037,0.001,-0.0051,-0.0059,-0.0029,-0.0113,-0.0125,-0.0129,-0.0239,-0.0255,-0.0185,-0.0189,-0.0342,-0.0357,-0.0372,-0.0389,-0.0439,-0.0445,-0.0449,-0.057,-0.0569,-0.0568,0,0,0,0,0,0,0.0013,0.0005,-0.0055,-0.0055,-0.0064,-0.0112,-0.0123,-0.0182,-0.024,-0.0169,-0.0175,-0.0186,-0.0329,-0.0353,-0.0365,-0.0455,-0.0432,-0.0438,-0.0442,-0.0444,-0.0569,-0.0569,0,0,0,0,0,0,0.0008,0.0001,-0.0054,-0.006,-0.0067,-0.0157,-0.0169,-0.0236,-0.0218,-0.0164,-0.022,-0.0221,-0.0324,-0.0337,-0.036,-0.0444,-0.0452,-0.0432,-0.0436,-0.0439,-0.0441,0,0,0,0,0,0,0,0.0004,0.0074,-0.0004,-0.0064,-0.0071,-0.0128,-0.013,-0.0132,-0.0218,-0.0219,-0.022,-0.0221,-0.0399,-0.0405,-0.0412,-0.0436,0,0,-0.0432,-0.0434,0,0,0,0,0,0,0,0,0.0075,0.0075,-0.0005,-0.0006,-0.0008,-0.0128,-0.013,-0.0132,-0.0218,-0.0219,-0.022,-0.022,-0.0401,-0.0406,-0.0411,0,0,0,0,0,0,0,0,0,0,0,0,0,0,0,-0.0005,-0.0006,0,-0.0128,-0.013,-0.0131,-0.0219,-0.0219,-0.022,-0.022,-0.0402,-0.0406,-0.0411,0,0,0,0,0,0,0,0,0,0,0,0,0,0,0,0,0,0,0,0,0,0,0,0,0,0,0,0,0,0,0,0,0,0,0,0,0,0,0,0,0,0,0,0,0,0,0,0,0,0,0,0,0,0,0,0,0,0,0,0,0,0,0,0,0,0,0,0,0]}]],[[{"header":{"parameterUnit":"kt","parameterCategory":2,"dx":1,"dy":1,"la1":30.253999710083008,"la2":30.299108505249023,"lo1":-89.0895004272461,"lo2":-89.04439544677734,"nx":28,"ny":28,"refTime":"2022-10-10T21:00:00:Z","depth":"4","parameterNumber":2,"parameterNumberName":"U-component_of_CURRENTS"},"data":[0.1912,0.1977,0.1998,0.199,0.2013,0.2153,0.2279,0.2474,0.248,0.2784,0.2862,0.3099,0.3253,0.3427,0.3417,0.3459,0.3413,0.385,0.3841,0.3916,0.3941,0.3964,0.3794,0,0,0,0,0,0.199,0.1991,0.2073,0.2186,0.2338,0.2418,0.2634,0.2764,0.3051,0.304,0.3205,0.3326,0.3431,0.3575,0.3494,0.3789,0.3877,0.3677,0.3722,0.3931,0.396,0.3785,0,0,0,0,0,0,0.211,0.2144,0.2286,0.2385,0.2545,0.2604,0.2732,0.2849,0.2998,0.3369,0.3392,0.3669,0.3909,0.3902,0.3941,0.393,0.3868,0.3719,0.3756,0.3785,0.361,0.3452,0.3308,0,0,0,0,0,0.2201,0.2316,0.242,0.2564,0.2695,0.2818,0.2995,0.305,0.3347,0.3608,0.3721,0.3815,0.3964,0.405,0.4096,0.4093,0.429,0.4208,0.4221,0.4106,0.4025,0.3991,0.3991,0.4066,0.407,0.4072,0.4074,0,0.2325,0.2374,0.2626,0.2694,0.2798,0.2975,0.3078,0.3352,0.3456,0.3806,0.3859,0.4118,0.4251,0.422,0.4361,0.4381,0.4317,0.4282,0.416,0.4069,0.403,0.4022,0.4013,0.4096,0.4094,0.4093,0.4091,0,0.238,0.251,0.2639,0.2855,0.2926,0.3033,0.3277,0.3386,0.3633,0.3817,0.3912,0.4173,0.4319,0.4437,0.4561,0.4435,0.4432,0.4363,0.4554,0.4525,0.4064,0.4046,0.4133,0.4125,0.4118,0.4112,0.4107,0,0.2487,0.2577,0.2768,0.2823,0.2955,0.3105,0.3272,0.342,0.3639,0.3774,0.3989,0.4102,0.4288,0.4397,0.4414,0.4373,0.4552,0.4242,0.4208,0.4381,0.4363,0.4362,0.434,0.4543,0.4542,0.4541,0.454,0,0.2521,0.2685,0.2778,0.2832,0.3014,0.3107,0.3225,0.342,0.3535,0.3786,0.3907,0.4088,0.4209,0.429,0.4342,0.4313,0.4486,0.4432,0.4203,0.4184,0.4348,0.4328,0.4539,0.4539,0.4538,0.4538,0.4538,0,0.2588,0.267,0.2782,0.2943,0.299,0.3072,0.3262,0.3366,0.3569,0.3677,0.384,0.393,0.4082,0.404,0.4207,0.4161,0.4184,0.4199,0.4203,0.3936,0.3828,0.4022,0.4197,0.4194,0.4191,0.4188,0.4186,0,0.258,0.269,0.2762,0.2883,0.2954,0.3064,0.3159,0.3285,0.3408,0.3557,0.3654,0.3794,0.3784,0.3864,0.393,0.3988,0.4049,0.3954,0.4056,0.4059,0.38,0.3903,0.4021,0.4148,0.4153,0.4156,0.4159,0,0.2558,0.2706,0.2728,0.2798,0.2925,0.2975,0.3089,0.3212,0.3317,0.3434,0.3569,0.3667,0.3735,0.3766,0.3785,0.3846,0.3985,0.3836,0.3838,0.3873,0.4159,0.3889,0.3885,0.3999,0.4003,0.4007,0.4132,0,0.2594,0.2674,0.271,0.2814,0.2876,0.2946,0.3034,0.3124,0.3212,0.328,0.3435,0.3477,0.3579,0.36,0.3592,0.3732,0.3723,0.3693,0.364,0.3747,0.3782,0.3804,0.3525,0.3524,0.3522,0.3521,0,0,0.2562,0.2627,0.269,0.275,0.2807,0.2884,0.2946,0.3008,0.3107,0.3172,0.3189,0.3352,0.3371,0.3472,0.352,0.3513,0.3554,0.3524,0.3683,0.3701,0.3718,0.3758,0.378,0.3518,0.3517,0.3517,0.3516,0,0.2549,0.2623,0.2671,0.2725,0.2822,0.2858,0.2892,0.2977,0.3042,0.313,0.3165,0.3247,0.3318,0.3358,0.3379,0.3482,0.3494,0.3513,0.3591,0.3666,0.3686,0.3704,0.3748,0.3769,0.3513,0.3513,0.3513,0,0.2538,0.2587,0.2617,0.2698,0.2755,0.2811,0.2832,0.2913,0.2971,0.2974,0.3091,0.3134,0.3161,0.3245,0.3288,0.3255,0.3423,0.3356,0.3365,0.3384,0.346,0.3483,0.3504,0.324,0.3239,0.3239,0,0,0.2535,0.2585,0.2647,0.2697,0.2737,0.2799,0.284,0.2888,0.294,0.2978,0.3028,0.3084,0.3133,0.3166,0.3209,0.3265,0.3281,0.3324,0.3337,0.3347,0.3372,0.3451,0.3473,0.3236,0.3236,0.3236,0,0,0.2521,0.2593,0.2632,0.269,0.2745,0.2788,0.2843,0.2879,0.2949,0.2985,0.3002,0.3015,0.3114,0.3108,0.3067,0.321,0.3156,0.3164,0.3216,0.3231,0.3244,0.3267,0.3054,0,0,0,0,0,0.2542,0.2576,0.2611,0.2629,0.272,0.2765,0.2779,0.2851,0.2891,0.2928,0.2981,0.2982,0.3101,0.3064,0.307,0.3144,0.3197,0.3204,0.321,0.3291,0.3308,0.3322,0,0,0,0,0,0,0.2549,0.2567,0.261,0.265,0.2673,0.2764,0.279,0.2808,0.2889,0.2902,0.2971,0.2981,0.2987,0.306,0.3066,0.3138,0.3052,0.32,0.3206,0.3211,0.3297,0.331,0.3322,0,0,0,0,0,0.2554,0.2569,0.2702,0.2651,0.267,0.2765,0.2791,0.2808,0.2884,0.291,0.2926,0.2946,0.2985,0.2995,0.3064,0.3136,0.3048,0.305,0.3204,0.3208,0.3212,0.3303,0,0,0,0,0,0,0.2559,0.2576,0.2707,0.2716,0.2669,0.2764,0.2782,0.2806,0.289,0.2906,0.2879,0.2886,0.2982,0.2991,0.2998,0.3138,0.3045,0.3047,0.3049,0.3207,0.3211,0.3214,0,0,0,0,0,0,0.2569,0.2582,0.2711,0.273,0.2741,0.2762,0.2778,0.2792,0.2889,0.2853,0.2863,0.2881,0.2972,0.2987,0.2993,0.3012,0.3043,0.3045,0.3046,0.3047,0.321,0.3213,0,0,0,0,0,0,0.2576,0.2587,0.2729,0.2737,0.2747,0.2842,0.2775,0.2865,0.2911,0.2847,0.2917,0.292,0.2967,0.2975,0.299,0.3005,0.301,0.3043,0.3044,0.3045,0.3046,0,0,0,0,0,0,0,0.2581,0.249,0.2663,0.2742,0.2751,0.2793,0.2795,0.2797,0.2912,0.2914,0.2917,0.2919,0.3031,0.3033,0.3036,0.3,0,0,0.3043,0.3044,0,0,0,0,0,0,0,0,0.2486,0.2489,0.2663,0.2665,0.2667,0.2793,0.2795,0.2796,0.2912,0.2914,0.2916,0.2918,0.3032,0.3034,0.3035,0,0,0,0,0,0,0,0,0,0,0,0,0,0,0,0.2663,0.2665,0,0.2793,0.2795,0.2796,0.2912,0.2914,0.2916,0.2917,0.3032,0.3034,0.3035,0,0,0,0,0,0,0,0,0,0,0,0,0,0,0,0,0,0,0,0,0,0,0,0,0,0,0,0,0,0,0,0,0,0,0,0,0,0,0,0,0,0,0,0,0,0,0,0,0,0,0,0,0,0,0,0,0,0,0,0,0,0,0,0,0,0,0,0,0]}],[{"header":{"parameterUnit":"kt","parameterCategory":2,"dx":1,"dy":1,"la1":30.253999710083008,"la2":30.299108505249023,"lo1":-89.0895004272461,"lo2":-89.04439544677734,"nx":28,"ny":28,"refTime":"2022-10-10T21:00:00:Z","depth":"4","parameterNumber":3,"parameterNumberName":"V-component_of_CURRENTS"},"data":[0.0171,0.0225,0.0309,0.0449,0.056,0.0694,0.0792,0.0854,0.086,0.0892,0.0701,0.0648,0.0275,0.048,-0.0088,-0.0169,-0.0284,-0.069,-0.0695,-0.0858,-0.0855,-0.0853,-0.0732,0,0,0,0,0,0.0221,0.0263,0.0341,0.0483,0.0597,0.0689,0.0806,0.0869,0.0937,0.0916,0.0918,0.0697,0.0331,0.0168,-0.0089,-0.0211,-0.0562,-0.0523,-0.0656,-0.0856,-0.0854,-0.0736,0,0,0,0,0,0,0.0275,0.0303,0.0391,0.051,0.0609,0.0725,0.0792,0.0845,0.09,0.091,0.088,0.0646,0.0509,0.0129,-0.0152,-0.0413,-0.0477,-0.0544,-0.0558,-0.0559,-0.0421,-0.0309,-0.0377,0,0,0,0,0,0.0321,0.038,0.0429,0.0547,0.0624,0.0724,0.0803,0.0847,0.0894,0.0899,0.0844,0.0652,0.0398,0.0079,-0.0221,-0.0499,-0.0689,-0.0785,-0.0785,-0.0753,-0.07,-0.0735,-0.0722,-0.0844,-0.0844,-0.0843,-0.0843,0,0.0367,0.0404,0.0518,0.0564,0.0595,0.0678,0.073,0.0779,0.0808,0.0796,0.0787,0.0607,0.0476,0.0063,-0.0222,-0.0605,-0.0659,-0.0777,-0.0742,-0.0694,-0.0733,-0.072,-0.0707,-0.0841,-0.0841,-0.0841,-0.0842,0,0.0381,0.0422,0.0483,0.0549,0.0581,0.0628,0.0706,0.0733,0.0737,0.0743,0.0731,0.0589,0.0364,0.0103,-0.0218,-0.0367,-0.061,-0.0697,-0.0586,-0.0631,-0.071,-0.0698,-0.0838,-0.0838,-0.0839,-0.084,-0.084,0,0.0382,0.0416,0.0473,0.0495,0.0564,0.0573,0.0633,0.0623,0.0621,0.0632,0.0529,0.0488,0.0238,0.0058,-0.0147,-0.0397,-0.0422,-0.0564,-0.0618,-0.0538,-0.0528,-0.0588,-0.0582,-0.0623,-0.0622,-0.0621,-0.062,0,0.0352,0.0397,0.0446,0.0455,0.0485,0.0511,0.0529,0.051,0.0522,0.047,0.0459,0.0322,0.0249,0.0062,-0.0166,-0.016,-0.0426,-0.0454,-0.0574,-0.0575,-0.0578,-0.0575,-0.0618,-0.0618,-0.0617,-0.0617,-0.0616,0,0.0319,0.0343,0.0394,0.043,0.0437,0.0458,0.0468,0.0471,0.0421,0.0393,0.0329,0.0252,0.0146,0.0084,-0.0144,-0.0089,-0.023,-0.0343,-0.0353,-0.0371,-0.0423,-0.0474,-0.049,-0.0488,-0.0486,-0.0484,-0.0483,0,0.0283,0.0323,0.0316,0.0356,0.0375,0.0345,0.0356,0.0334,0.0298,0.0272,0.0177,0.0138,0.0068,0.0041,-0.0041,-0.0178,-0.0256,-0.0175,-0.0412,-0.0418,-0.0396,-0.0409,-0.0278,-0.0458,-0.0461,-0.0464,-0.0465,0,0.0245,0.0256,0.0259,0.0274,0.0257,0.026,0.026,0.0242,0.0244,0.0182,0.0167,0.008,0.0032,-0.0009,-0.0079,-0.015,-0.0226,-0.0206,-0.0212,-0.0269,-0.0402,-0.0383,-0.0396,-0.027,-0.0272,-0.0273,-0.0448,0,0.0207,0.0218,0.0229,0.0226,0.022,0.0225,0.0191,0.0179,0.0147,0.0112,0.0066,-0.0016,-0.0075,-0.0106,-0.0147,-0.0196,-0.023,-0.0263,-0.0295,-0.0285,-0.0364,-0.0377,-0.0246,-0.0248,-0.0249,-0.025,0,0,0.0168,0.0179,0.015,0.0159,0.0156,0.0105,0.012,0.0093,0.0044,0.0031,0.0006,-0.0094,-0.0152,-0.0198,-0.0195,-0.0229,-0.0283,-0.0226,-0.0283,-0.0286,-0.0289,-0.0364,-0.0375,-0.0252,-0.0253,-0.0253,-0.0253,0,0.0148,0.0135,0.015,0.0135,0.0109,0.0085,0.0085,0.0044,0.0023,-0.0002,-0.0059,-0.0106,-0.0168,-0.0217,-0.0251,-0.0242,-0.0314,-0.0257,-0.021,-0.0291,-0.0292,-0.0294,-0.0367,-0.0376,-0.0256,-0.0256,-0.0256,0,0.0112,0.0098,0.0099,0.0078,0.0055,0.0054,0.0006,-0.0005,-0.001,-0.0086,-0.0105,-0.0157,-0.0224,-0.0253,-0.0271,-0.0287,-0.0349,-0.0316,-0.031,-0.0302,-0.0388,-0.0389,-0.039,-0.038,-0.038,-0.038,0,0,0.0097,0.0101,0.0065,0.007,0.0062,0.0016,0.0002,-0.0023,-0.0061,-0.0078,-0.0125,-0.0177,-0.0221,-0.0247,-0.0289,-0.0317,-0.0373,-0.0327,-0.0321,-0.0316,-0.0304,-0.0388,-0.0389,-0.038,-0.038,-0.038,0,0,0.0085,0.0058,0.004,0.0046,0.002,-0.0026,-0.0029,-0.0058,-0.0096,-0.0101,-0.0165,-0.018,-0.0211,-0.0253,-0.0246,-0.0299,-0.0328,-0.0331,-0.0262,-0.0255,-0.025,-0.0223,-0.0295,0,0,0,0,0,0.0047,0.0064,0.0048,0.0043,0.0004,-0.0017,-0.0025,-0.0064,-0.0085,-0.0084,-0.0132,-0.0168,-0.0262,-0.0257,-0.0271,-0.0269,-0.0381,-0.0381,-0.0381,-0.0299,-0.0292,-0.0286,0,0,0,0,0,0,0.0046,0.0042,0.0047,0.0005,-0.0005,-0.0018,-0.0054,-0.0065,-0.0085,-0.009,-0.0157,-0.017,-0.0212,-0.0254,-0.0265,-0.0263,-0.0291,-0.0381,-0.0381,-0.0381,-0.0297,-0.0291,-0.0286,0,0,0,0,0,0.0044,0.0041,-0.0006,0.0003,-0.0005,-0.0055,-0.0054,-0.0064,-0.0082,-0.0146,-0.0159,-0.0109,-0.021,-0.0224,-0.0261,-0.0256,-0.0283,-0.0287,-0.0381,-0.0381,-0.0381,-0.0294,0,0,0,0,0,0,0.0042,0.0024,-0.0009,-0.0014,0.0001,-0.0055,-0.0063,-0.0062,-0.0138,-0.015,-0.0101,-0.0104,-0.0209,-0.022,-0.023,-0.025,-0.0277,-0.0281,-0.0284,-0.0381,-0.0381,-0.0381,0,0,0,0,0,0,0.0025,0.0021,-0.0012,-0.0012,-0.0017,-0.0055,-0.0062,-0.0103,-0.0139,-0.009,-0.0094,-0.0101,-0.02,-0.0217,-0.0225,-0.0288,-0.0272,-0.0276,-0.0279,-0.0281,-0.0381,-0.0381,0,0,0,0,0,0,0.0022,0.0018,-0.0011,-0.0015,-0.002,-0.0082,-0.0095,-0.0137,-0.0124,-0.0086,-0.0125,-0.0126,-0.0197,-0.0206,-0.0222,-0.0281,-0.0286,-0.0272,-0.0275,-0.0277,-0.0278,0,0,0,0,0,0,0,0.0019,0.0065,0.0023,-0.0018,-0.0022,-0.0062,-0.0063,-0.0065,-0.0124,-0.0124,-0.0125,-0.0125,-0.0249,-0.0254,-0.0258,-0.0275,0,0,-0.0272,-0.0274,0,0,0,0,0,0,0,0,0.0065,0.0065,0.0023,0.0022,0.0021,-0.0062,-0.0063,-0.0064,-0.0124,-0.0124,-0.0125,-0.0125,-0.025,-0.0254,-0.0258,0,0,0,0,0,0,0,0,0,0,0,0,0,0,0,0.0023,0.0022,0,-0.0062,-0.0063,-0.0064,-0.0124,-0.0124,-0.0125,-0.0125,-0.0251,-0.0254,-0.0257,0,0,0,0,0,0,0,0,0,0,0,0,0,0,0,0,0,0,0,0,0,0,0,0,0,0,0,0,0,0,0,0,0,0,0,0,0,0,0,0,0,0,0,0,0,0,0,0,0,0,0,0,0,0,0,0,0,0,0,0,0,0,0,0,0,0,0,0,0]}]]]